Ann Arbor, MI

7:41 AM EDT on June 03, 2015 (GMT -0400)
Walker Briar Works | | Change Station
CLOSE
Current Station
Personal Weather Station
Location: Ann Arbor, MI
Elevation: 961 ft
Nearby Weather Stations

Elev 961 ft 42.26 °N, 83.77 °W | Updated 1 minute ago

Clear
Clear
53.6 °F
Feels Like 53.6 °F
N
0.0
Wind Variable Wind from NE
Gusts 3.8 mph

Today
High -- | Low -- °F
--% Chance of Precip.
Yesterday
High -- | Low -- °F
Precip. -- in
6:00 AM 9:06 PM
Full, 99% visible
Pressure 30.14 in
Visibility 10.0 miles
Clouds Clear
Dew Point 51 °F
Humidity 90%
Rainfall 0.00 in
Snow Depth Not available.
UV 0 out of 12
Pollen 7.30 out of 12
Air Quality Not available.
Flu Activity Sporadic
METAR KARB 031053Z AUTO 03004KT 10SM CLR 09/08 A3014 RMK AO2 SLP205 T00940078

More Conditions Fewer Conditions

Pressure 30.14 in
Visibility 10.0 miles
Clouds Clear
Dew Point 51 °F
Humidity 90%
Rainfall 0.00 in
Snow Depth Not available.
UV 0 out of 12
Pollen 7.30 out of 12
Air Quality Not available.
Flu Activity Sporadic
METAR KARB 031053Z AUTO 03004KT 10SM CLR 09/08 A3014 RMK AO2 SLP205 T00940078

More Conditions Fewer Conditions

10-Day Weather Forecast

×

Almanac

Astronomy

Jun. 03, 2015 Rise Set
Actual Time
Civil Twilight
Nautical Twilight
Astronomical Twilight
Moon
Length of Visible Light
Length of Day
Tomorrow will be .
, % of the Moon is Illuminated

Today's Extremes

State Highs State Lows

Community

WunderPhotos

Upload Photos

1,826,205 photos uploaded!

WunderBlogs® & News

Nearby

Air Quality

  Air Quality AQ Index Pollutant
Not available.

Snow Depth

Station Depth Elevation

Earthquake Activity

City Distance Mag. Time & Date
Minimum magnitude displayed is 2.5.

Coastal Water Temperatures

Place Temperature

Stations

Nearby Weather Stations

Station Location Temp. Windchill Dew Point Humidity Wind Precip. Elev Updated Type